Miscellaneous Local Product
Issued by NWS North Platte, NE

Home | Current Version | Previous Version | Graphics & Text | Print | Product List | Glossary On
Versions: 1 2 3 4 5 6 7 8 9 10 11 12 13 14 15 16 17 18 19 20 21 22 23 24 25 26 27 28 29 30 31 32 33 34 35 36 37 38 39 40 41 42 43 44 45 46 47 48 49 50
000
AXUS43 KLBF 230210
MISLBF


WESTERN AND NORTH CENTRAL NEBRASKA HOURLY WEATHER ROUNDUP
NATIONAL WEATHER SERVICE NORTH PLATTE NE
900 PM CDT FRI JUL 22 2016

NOTE: "FAIR" INDICATES FEW OR NO CLOUDS BELOW 12,000 FEET WITH NO
SIGNIFICANT WEATHER AND/OR OBSTRUCTIONS TO VISIBILITY.

NOTE: STATIONS NOT REPORTING VARIABLES SUCH AS SKY/WEATHER OR
PRESSURE ARE PROVIDED BY RAWS AND APRS NETWORKS AND ARE NOT UNDER
NATIONAL WEATHER SERVICE QUALITY CONTROL.

...OBSERVATIONS IN AND NEAR THE EASTERN PANHANDLE OF NEBRASKA...

CITY           SKY/WX    TMP DP  RH WIND       PRES   REMARKS
PINE RIDGE     CLOUDY    83  53  35 S22G33    29.96F
CHADRON        CLOUDY    80  57  45 SE18G32   29.94F
ALLIANCE       CLOUDY    68  64  87 SE10      30.01F
SIDNEY         CLOUDY    71  63  75 NE28G35   30.05F THUNDER
CRESCENT LAKE    N/A     67  60  79 E16         N/A
$$

...OBSERVATIONS IN NORTHERN NEBRASKA AND FAR SOUTHERN SOUTH DAKOTA...

CITY           SKY/WX    TMP DP  RH WIND       PRES   REMARKS
WINNER         FAIR      89  75  63 SE12      29.92F HX  99
VALENTINE      CLOUDY    87  71  58 E8        29.95F HX  93
THEDFORD       CLOUDY    87  75  67 CALM      30.00R HX  95
AINSWORTH      CLOUDY    85  77  77 E3        29.97S HX  95
O`NEILL        PTCLDY    86  76  73 E6        29.95R HX  96
ORD            MOCLDY    87  78  74 SE7       29.92R HX 100
BROKEN BOW     CLOUDY    81  75  82 E3        29.94F
VALENTINE NWR    N/A     87  71  59 SE5         N/A  HX  92
BUTTE            N/A     85  78  80 E13G20      N/A  HX  96
HALSEY           N/A     86  73  65 CALM        N/A  HX  93
EWING            N/A     82  79  90 CALM        N/A  HX  91
$$

...OBSERVATIONS IN SOUTHWEST NEBRASKA AND FAR NORTHEAST COLORADO...

CITY           SKY/WX    TMP DP  RH WIND       PRES   REMARKS
WRAY           FAIR      86  63  45 E9        29.97
HOLYOKE        FAIR      84  64  51 W13       29.97S
IMPERIAL       CLOUDY    84  65  52 SE12      29.96F
OGALLALA       TSTM      78  73  86 CALM      29.93F
NORTH PLATTE   CLOUDY    82  70  66 SE6       29.95S
MCCOOK         CLOUDY    84  72  67 E9        29.91F
LEXINGTON      CLOUDY    84  73  69 SE6       29.93F HX  90
STAPLETON        N/A     84  77  79 CALM        N/A  HX  93
GOTHENBURG       N/A     86  70  58 CALM        N/A  HX  90
CALLAWAY         N/A     81  74  79 S7          N/A
$$

...OBSERVATIONS IN CENTRAL LINCOLN COUNTY AREA...

CITY           SKY/WX    TMP DP  RH WIND       PRES   REMARKS
N.P. AIRPORT   CLOUDY    82  70  66 SE6       29.95S
N.P. DOWNTOWN    N/A     85  70  61 CALM        N/A
N.P. SOUTHEAST   N/A     84  71  65 SE3         N/A
N.P. HILLCREST   N/A     84  70  63 SE8         N/A
$$

...SOME OBSERVATIONS FROM AROUND THE REGION...

CITY           SKY/WX    TMP DP  RH WIND       PRES   REMARKS
DENVER         CLOUDY    85  48  27 W13       30.11R
LARAMIE        CLOUDY    79  50  36 SW7       30.24S
CHEYENNE       CLOUDY    82  46  28 SW10      30.14F
SCOTTSBLUFF    CLOUDY    76  60  57 E16       30.01S
RAPID CITY     CLEAR     82  57  42 S17G25    29.92S
BISMARCK       LGT RAIN  73  67  81 SE20      29.98F
PIERRE         MOCLDY    85  71  63 SE12      29.89R HX  90
SIOUX FALLS    MOCLDY    86  77  74 E12       29.92F HX  97
OMAHA          MOCLDY    89  81  77 E12       29.89S HX 108
GRAND ISLAND   CLEAR     84  70  62 S3        29.91F
KANSAS CITY    MOCLDY    88  77  69 SE12      29.94F HX 100
WICHITA        PTCLDY    92  69  47 SE13      29.92R HX  97
OKLAHOMA CITY  PTCLDY    84  67  56 S7        29.97R
DALLAS         PTCLDY    92  65  40 S8        29.95S HX  94
AMARILLO       CLEAR     90  51  26 S15       30.06S
DODGE CITY     CLEAR     88  59  37 S10       29.95S
HAYS           CLOUDY    91  61  35 S10       29.90S HX  91
GOODLAND       CLEAR     87  54  32 S10       29.96F
$$




USA.gov is the U.S. government's official web portal to all federal, state and local government web resources and services.